MOLNIYA 2-9

Last updated on Oct. 29, 2020, 5:52 a.m. UTC

1 07276U 74026A   20302.08245031 -.00000105  00000-0  00000-0 0  9998
2 07276  64.1391 317.9955 6760948 287.0693  13.1839  2.45096005234715
UTC
Height (km)
Latitude
Longitude
Inclination
Orbital Period
UTC large
Height (km)
Speed (km/s)
/
Latitude / Longitude
Inclination (degrees)
Orbital Period (minutes)
Azimuth
Elevation
Range (km)
Doppler Factor
iOS Compass Heading
iOS Angle

Next 30 passes for location: Hong Kong

Rise time Rise Azimuth (degrees) Set time Set Azimuth (degrees) Duration Max altitude (degrees)

No matching passes for this satellites